Showing default

LEMUR 2 DELOITTE-1, 63259

Orbit data source: Space-Track

LEMUR 2 DELOITTE-1, 63259 is an American payload satellite in SSO that was launched on Sat, 15 Mar 2025 UTC via an FALCON 9 launch vehicle from the Air Force Western Test Range (AFWTR). Payload-class satellites include a variety of spacecraft equipped with specific instruments for various scientific and technological missions. These include communications satellites like Starlink; space stations such as the ISS; scientific satellites like the Hubble; Earth observation satellites from companies like Planet Labs, Umbra, and HawkEye 360; GPS; miniature CubeSats for education and research; and military/defense satellites.

Loading next visibility...
Identifier
63259, 2025-052BB
Orbit
SSO
Country
Flag of USUS
Related business
Manufacturer
Spire/Glasgow
Mission
Operational Commercial Com/MetRO
Bus & Motor
CUBESAT 6U, Unknown motor
Mass
10 kg wet, 10 kg dry
Launch date (UTC)
2025-03-15 (1 year ago)
Launch vehicle
FALCON 9
Launch site
Air Force Western Test Range (AFWTR)
Object type
Payload
Rocket body
Debris
Shape & HBR
Box, 0.2 m
Radar Cross Section
0.080 m², Medium (>0.1 m² and < 1m²)

Expand to show TLE details & history
Last TLE update: 6 days ago

TLE from 6 days ago
0 LEMUR 2 DELOITTE-1
1 63259U 25052BB  26154.95499220  .00004101  00000-0  35676-3 0  9993
2 63259  97.6925  47.9129 0002083 117.9427 242.2006 14.97500114 66719
Epoch: 2026-06-03T22:55Z
TLE epoch observation values (Epoch: 2026-06-03T22:55:11.326Z)
Latitude
-0.00001°
Longitude
171.70952°
Altitude
578.351 km
Speed
7.571 km/s
True Right ascension
03h 11m 39s
True Declination
0° 00' 00"
Sunlit
Object was in daylight at epoch
Visualization orbit readout
Latitude
Unknown
Longitude
Unknown
Altitude
Unknown
Speed
Unknown
Apparent Right ascension
Unknown
Apparent Declination
Unknown
Sunlit
N/A
Visualization observer readout
Local Sidereal Time
13:20:50
Azimuth
Unknown
Elevation
Unknown
Doppler factor
Unknown
Orbital elements
Apogee altitude
573.079 km
Perigee altitude
570.184 km
Semi-major axis
6,949.769 km
Eccentricity
0.00021
Inclination
97.6925°
RAAN
47.9129°
Arg. of periapsis
117.9427°
True anomaly
242.17949°
Mean anomaly
242.2006°
Eccentric anomaly
242.19004°
Mean motion
3.74617 °/min
Orbital period
96.1 mins
BSTAR
0.00035676
Loading maneuver chart data...
Computing Atmospheric mass density...
Loading historical data...
Loading historical data...
Loading historical data...
Loading historical data...
Loading historical data...
Loading historical data...
Loading historical data...

Documentation

Showing up to 5 results
|